Location: Winter Haven
(28.0220°N, 81.7330°W)
Time: 19:01:18
(UTC-04:00)

Amateur Radio Satellites - All Passes

Search period start: 24 April 2017 18:31
Search period end: 25 April 2017 18:31
Location: Winter Haven, 28.0220°N, 81.7330°W

Satellite Date Start Highest point End Downlink Frequencies (MHz)
Time Altitude Azimuth
Tancredo 1 24 Apr 18:34:23 18:36:07 14° 234° (SW) 18:37:50 437.200
ISS 24 Apr 18:36:56 18:39:21 19° 233° (SW) 18:41:45 437.550
XW-2F 24 Apr 18:38:55 18:42:22 38° 76° (ENE) 18:45:51 145.980 - 146.000
DOVE 4 24 Apr 18:46:50 18:52:07 86° 258° (WSW) 18:57:26 437.250
JUGNU 24 Apr 18:47:06 18:52:13 30° 170° (S) 18:57:21 437.505
STARS 24 Apr 18:50:09 18:54:26 59° 285° (WNW) 18:58:42 437.465
YUBILEINY 24 Apr 18:51:35 18:56:01 15° 278° (W) 19:00:27 435.215
CUTE-I 24 Apr 18:54:16 18:59:33 63° 75° (ENE) 19:04:50 437.470
NUDT-PHONESAT 24 Apr 18:57:42 19:01:18 58° 76° (ENE) 19:04:54 437.300
XW-2D 24 Apr 19:26:59 19:30:23 34° 261° (W) 19:33:49 145.860 - 145.880
NO-84 24 Apr 19:29:00 19:32:13 24° 124° (SE) 19:35:13 435.350 FM
XW-2B 24 Apr 19:34:01 19:37:17 28° 262° (W) 19:40:33 145.730 - 145.750
CUTE 1.7 + AOD 2 24 Apr 19:35:21 19:38:36 22° 72° (ENE) 19:41:52 437.475
HO-68 24 Apr 19:40:16 19:46:56 44° 70° (ENE) 19:53:37 435.675
STRAND 1 24 Apr 19:41:13 19:43:56 14° 95° (E) 19:46:38 437.568
LilacSat-2 24 Apr 19:42:37 19:45:29 21° 263° (W) 19:48:22 437.200
XW-2A 24 Apr 19:45:51 19:48:47 28° 75° (ENE) 19:51:42 145.665 - 145.685
XW-2C 24 Apr 19:46:23 19:49:07 19° 264° (W) 19:51:52 145.795 - 145.815
RS-15 24 Apr 19:47:10 19:57:31 36° 255° (WSW) 20:07:27 29.354- 29.394
KAITUO 1B 24 Apr 19:49:45 19:52:39 22° 263° (W) 19:55:35 145.475/437.950
SEEDS 24 Apr 19:59:38 20:03:10 27° 73° (ENE) 20:06:43 437.485
SRMSAT 24 Apr 20:05:45 20:10:01 20° 163° (SSE) 20:14:16 437.500
UWE-3 24 Apr 20:09:09 20:11:25 14° 71° (ENE) 20:13:40 435.000/436.395/437.385
CUBEBUG 2 24 Apr 20:15:31 20:19:27 31° 74° (ENE) 20:23:16 437.445
JUGNU 24 Apr 20:35:24 20:40:52 38° 179° (S) 20:46:22 437.505
CUTE-I 24 Apr 20:38:33 20:39:51 11° 266° (W) 20:41:09 437.470
M-CUBED/EXP-1 PRIME 24 Apr 20:42:12 20:46:16 63° 106° (ESE) 20:49:58 437.505
NO-84 24 Apr 21:06:44 21:09:41 21° 313° (NW) 21:12:27 435.350 FM
ZACube-1 24 Apr 21:08:01 21:12:02 41° 75° (ENE) 21:15:59 437.345
CUTE 1.7 + AOD 2 24 Apr 21:11:13 21:14:17 20° 264° (W) 21:17:23 437.475
AAUSAT CUBESAT 2 24 Apr 21:13:56 21:18:01 70° 260° (W) 21:22:09 437.432
AO-73 24 Apr 21:16:14 21:20:18 47° 76° (ENE) 21:24:18 145.935
STRAND 1 24 Apr 21:18:22 21:23:12 45° 286° (WNW) 21:28:03 437.568
HO-68 24 Apr 21:28:57 21:34:40 26° 262° (W) 21:40:26 435.675
Oscar 11 24 Apr 21:34:22 21:38:37 67° 77° (ENE) 21:42:53 .
SEEDS 24 Apr 21:36:16 21:38:47 16° 265° (W) 21:41:20 437.485
UWE-3 24 Apr 21:43:37 21:47:33 33° 261° (W) 21:51:26 435.000/436.395/437.385
O/OREOS (USA 219) 24 Apr 21:47:38 21:52:12 71° 71° (ENE) 21:56:42 437.305
CUBEBUG 2 24 Apr 21:53:19 21:56:00 16° 264° (W) 21:58:39 437.445
SRMSAT 24 Apr 21:53:25 21:58:45 34° 172° (S) 22:04:05 437.500
OBJECT BX 24 Apr 22:00:22 22:03:10 21° 73° (ENE) 22:05:57 145.990 - 145.960
DELFI C3 24 Apr 22:18:40 22:22:33 58° 77° (ENE) 22:26:28 145.870
JUGNU 24 Apr 22:24:19 22:29:32 32° 190° (S) 22:34:46 437.505
FO-29 24 Apr 22:26:30 22:28:12 11° 96° (E) 22:29:57 435.910
TIGRISAT 24 Apr 22:46:39 22:50:04 23° 97° (E) 22:53:32 435.000
ZACube-1 24 Apr 22:47:39 22:48:23 10° 266° (W) 22:49:07 437.345
AO-85 24 Apr 22:53:02 22:56:37 30° 60° (ENE) 23:00:22 145.980
UNISAT 6 24 Apr 23:06:35 23:10:42 46° 100° (E) 23:14:53 437.425
LO-87 24 Apr 23:11:37 23:14:24 21° 73° (ENE) 23:17:10 145.935 - 145.965
PRISM 24 Apr 23:14:50 23:18:59 73° 283° (WNW) 23:23:04 437.425
OBJECT BX 24 Apr 23:34:40 23:36:44 15° 264° (W) 23:38:49 145.990 - 145.960
SRMSAT 24 Apr 23:42:06 23:47:36 38° 182° (S) 23:53:04 437.500
FO-29 25 Apr 00:08:17 00:13:25 57° 285° (WNW) 00:18:57 435.910
ESTCUBE 1 25 Apr 00:13:13 00:17:41 76° 76° (ENE) 00:22:10 437.505/2401.250
JUGNU 25 Apr 00:14:15 00:18:06 18° 198° (SSW) 00:21:58 437.505
NANOSAT C BR1 25 Apr 00:17:32 00:19:55 15° 96° (E) 00:22:18 145.865
SPROUT 25 Apr 00:20:22 00:23:20 19° 71° (ENE) 00:26:19 437.525
TIGRISAT 25 Apr 00:23:26 00:26:34 20° 288° (WNW) 00:29:45 435.000
AO-85 25 Apr 00:34:18 00:36:45 15° 250° (WSW) 00:39:17 145.980
VELOX 1 25 Apr 00:36:19 00:40:19 33° 73° (ENE) 00:44:18 145.980
BEESAT 2 25 Apr 00:39:07 00:42:33 26° 59° (ENE) 00:45:55 435.950
EO-79 25 Apr 00:42:36 00:46:28 35° 99° (E) 00:50:18 145.935-145.965
BEESAT 3 25 Apr 00:44:44 00:48:44 82° 243° (WSW) 00:52:40 437.485
LO-87 25 Apr 00:45:33 00:47:43 15° 264° (W) 00:49:53 145.935 - 145.965
UNISAT 6 25 Apr 00:46:18 00:46:58 10° 291° (WNW) 00:47:38 437.425
DUCHIFAT 1 25 Apr 00:47:18 00:51:03 32° 99° (E) 00:54:47 145.980
UKube-1 25 Apr 01:07:47 01:10:41 18° 70° (ENE) 01:13:36 .
AIST 2D 25 Apr 01:11:04 01:14:13 31° 285° (WNW) 01:17:22 435.315
POLYITAN 1 25 Apr 01:20:55 01:25:05 67° 283° (WNW) 01:29:15 437.675
QB50P2 25 Apr 01:27:31 01:31:34 49° 284° (WNW) 01:35:37 145.880/145.840
SRMSAT 25 Apr 01:31:22 01:36:23 28° 192° (SSW) 01:41:23 437.500
50 SAT 25 Apr 01:31:59 01:35:26 78° 258° (WSW) 01:38:55 437.505
DX 1 25 Apr 01:34:46 01:39:05 61° 76° (ENE) 01:43:24 434.975-435.025
Oscar 19 25 Apr 01:46:13 01:49:09 15° 95° (E) 01:52:04 437.125/150
NANOSAT C BR1 25 Apr 01:51:58 01:55:35 29° 287° (WNW) 01:59:12 145.865
SPROUT 25 Apr 01:55:28 01:59:00 25° 262° (W) 02:02:33 437.525
BUGSAT 1 25 Apr 01:57:28 02:01:28 74° 101° (ESE) 02:05:27 437.445
PCSat 25 Apr 02:02:41 02:06:15 18° 105° (ESE) 02:09:48 145.827
VELOX 1 25 Apr 02:14:12 02:16:45 15° 265° (W) 02:19:19 145.980
BEESAT 2 25 Apr 02:17:23 02:20:03 17° 251° (WSW) 02:22:42 435.950
EO-79 25 Apr 02:20:00 02:21:50 13° 291° (WNW) 02:23:40 145.935-145.965
DUCHIFAT 1 25 Apr 02:24:15 02:26:22 14° 290° (WNW) 02:28:29 145.980
UKube-1 25 Apr 02:42:47 02:46:27 27° 262° (W) 02:50:08 .
BEESAT 25 Apr 02:48:43 02:51:59 19° 70° (ENE) 02:55:14 436.000
Gurwin Techsat 1B 25 Apr 03:08:36 03:13:53 67° 102° (ESE) 03:19:09 435.225
SRMSAT 25 Apr 03:22:07 03:25:04 14° 200° (SSW) 03:28:01 437.500
Oscar 19 25 Apr 03:23:38 03:28:34 45° 287° (WNW) 03:33:29 437.125/150
ITUPSAT 1 25 Apr 03:26:26 03:31:01 50° 74° (ENE) 03:35:36 437.325
PCSat 25 Apr 03:44:08 03:49:13 42° 297° (WNW) 03:54:21 145.827
YUBILEINY 25 Apr 03:51:31 03:56:19 16° 82° (E) 04:01:05 435.215
AO-7 25 Apr 04:14:07 04:21:40 37° 101° (E) 04:29:10 .
BEESAT 25 Apr 04:25:15 04:29:27 32° 261° (W) 04:33:41 436.000
MOZHAYETS 4 25 Apr 04:35:46 04:40:13 55° 260° (W) 04:44:41
ITAMSAT 1 25 Apr 04:44:47 04:49:58 84° 103° (ESE) 04:55:09 435.822/435.867
Gurwin Techsat 1B 25 Apr 04:51:47 04:53:11 11° 294° (WNW) 04:54:35 435.225
KKS-1 25 Apr 05:02:20 05:06:33 43° 74° (ENE) 05:10:48 437.445
ITUPSAT 1 25 Apr 05:07:37 05:08:59 11° 266° (W) 05:10:22 437.325
CUBESAT XI-V 25 Apr 05:21:17 05:25:51 67° 77° (ENE) 05:30:29 437.345
NO-84 25 Apr 05:22:58 05:25:46 58° 233° (SW) 05:28:36 435.350 FM
STARS 25 Apr 05:39:30 05:43:44 47° 75° (ENE) 05:47:58 437.465
YUBILEINY 25 Apr 05:43:24 05:52:04 74° 276° (W) 06:00:47 435.215
AO-7 25 Apr 06:06:47 06:14:14 38° 294° (WNW) 06:21:43 .
KKS-1 25 Apr 06:41:39 06:43:12 12° 265° (W) 06:44:46 437.445
STRAND 1 25 Apr 06:52:37 06:53:26 10° 66° (ENE) 06:54:15 437.568
DOVE 4 25 Apr 06:53:45 06:58:04 43° 99° (E) 07:02:08 437.250
XW-2D 25 Apr 07:05:57 07:09:30 36° 99° (E) 07:13:02 145.860 - 145.880
XW-2B 25 Apr 07:12:44 07:16:24 43° 100° (E) 07:20:03 145.730 - 145.750
CUTE-I 25 Apr 07:18:31 07:23:36 45° 100° (E) 07:28:38 437.470
STARS 25 Apr 07:19:58 07:20:12 10° 266° (W) 07:20:27 437.465
SO-50 25 Apr 07:20:06 07:24:44 74° 297° (WNW) 07:29:20 436.795
HO-68 25 Apr 07:20:42 07:21:24 10° 93° (E) 07:22:07 435.675
M-CUBED/EXP-1 PRIME 25 Apr 07:20:44 07:24:34 28° 67° (ENE) 07:28:30 437.505
LilacSat-2 25 Apr 07:21:25 07:25:14 65° 101° (ESE) 07:29:03 437.200
XW-2C 25 Apr 07:24:26 07:28:14 68° 101° (E) 07:32:02 145.795 - 145.815
KAITUO 1B 25 Apr 07:26:43 07:30:25 54° 100° (E) 07:34:07 145.475/437.950
RS-15 25 Apr 07:46:17 07:57:56 68° 111° (ESE) 08:10:04 29.354- 29.394
XW-2F 25 Apr 07:51:26 07:55:06 48° 284° (WNW) 07:58:47 145.980 - 146.000
Tancredo 1 25 Apr 07:51:30 07:53:43 18° 127° (SE) 07:55:57 437.200
ISS 25 Apr 07:59:22 08:01:36 17° 126° (SE) 08:03:50 437.550
NUDT-PHONESAT 25 Apr 08:08:42 08:12:05 34° 285° (WNW) 08:15:28 437.300
CUBEBUG 2 25 Apr 08:15:46 08:16:15 10° 94° (E) 08:16:45 437.445
STRAND 1 25 Apr 08:26:55 08:31:59 66° 258° (WSW) 08:37:04 437.568
DOVE 4 25 Apr 08:33:40 08:35:13 12° 293° (WNW) 08:36:45 437.250
XW-2A 25 Apr 08:46:22 08:49:43 88° 96° (E) 08:53:05 145.665 - 145.685
M-CUBED/EXP-1 PRIME 25 Apr 08:55:26 08:58:51 21° 260° (W) 09:02:24 437.505
CUTE-I 25 Apr 08:59:59 09:03:12 16° 292° (WNW) 09:06:24 437.470
CUTE 1.7 + AOD 2 25 Apr 09:01:30 09:05:46 69° 283° (WNW) 09:10:02 437.475
HO-68 25 Apr 09:02:27 09:09:41 89° 102° (ESE) 09:16:54 435.675
AAUSAT CUBESAT 2 25 Apr 09:03:08 09:06:49 30° 98° (E) 09:10:28 437.432
ZACube-1 25 Apr 09:04:19 09:06:32 14° 95° (E) 09:08:44 437.345
AO-73 25 Apr 09:11:55 09:14:29 16° 96° (E) 09:17:03 145.935
SEEDS 25 Apr 09:24:58 09:29:09 56° 283° (WNW) 09:33:17 437.485
Tancredo 1 25 Apr 09:27:04 09:29:31 21° 319° (NW) 09:31:57 437.200
Oscar 11 25 Apr 09:29:08 09:32:27 21° 97° (E) 09:35:46 .
ISS 25 Apr 09:35:10 09:37:54 24° 318° (NW) 09:40:38 437.550
UWE-3 25 Apr 09:39:15 09:43:28 80° 103° (ESE) 09:47:45 435.000/436.395/437.385
CUBEBUG 2 25 Apr 09:49:02 09:52:57 41° 285° (WNW) 09:56:56 437.445
PRISM 25 Apr 09:57:21 10:00:55 29° 73° (ENE) 10:04:30 437.425
UNISAT 6 25 Apr 09:59:35 10:02:35 18° 71° (ENE) 10:05:33 437.425
RS-15 25 Apr 10:00:56 10:11:11 32° 310° (NW) 10:21:46 29.354- 29.394
DELFI C3 25 Apr 10:04:19 10:06:08 13° 95° (E) 10:07:56 145.870
FO-29 25 Apr 10:13:29 10:18:56 28° 72° (ENE) 10:23:55 435.910
O/OREOS (USA 219) 25 Apr 10:14:56 10:18:10 19° 101° (E) 10:21:25 437.305
ZACube-1 25 Apr 10:39:00 10:42:47 32° 286° (WNW) 10:46:38 437.345
AAUSAT CUBESAT 2 25 Apr 10:39:33 10:41:57 15° 289° (WNW) 10:44:21 437.432
AO-73 25 Apr 10:46:59 10:50:40 29° 286° (WNW) 10:54:23 145.935
HO-68 25 Apr 10:53:36 10:56:25 13° 299° (WNW) 10:59:14 435.675
Oscar 11 25 Apr 11:05:02 11:08:25 23° 288° (WNW) 11:11:48 .
OBJECT BX 25 Apr 11:08:24 11:12:03 77° 101° (E) 11:15:42 145.990 - 145.960
TIGRISAT 25 Apr 11:13:53 11:18:15 55° 259° (W) 11:22:32 435.000
EO-79 25 Apr 11:30:30 11:31:51 11° 69° (ENE) 11:33:13 145.935-145.965
PRISM 25 Apr 11:33:46 11:36:09 15° 264° (W) 11:38:33 437.425
UNISAT 6 25 Apr 11:35:15 11:39:03 27° 262° (W) 11:42:47 437.425
DELFI C3 25 Apr 11:37:23 11:40:54 30° 286° (WNW) 11:44:23 145.870
AIST 2D 25 Apr 11:38:41 11:41:35 25° 75° (ENE) 11:44:30 435.315
O/OREOS (USA 219) 25 Apr 11:53:26 11:57:18 27° 293° (WNW) 12:01:13 437.305
FO-29 25 Apr 11:57:44 12:03:48 35° 260° (W) 12:09:17 435.910
POLYITAN 1 25 Apr 12:06:34 12:10:23 34° 74° (ENE) 12:14:11 437.675
QB50P2 25 Apr 12:12:49 12:16:51 45° 75° (ENE) 12:20:54 145.880/145.840
ESTCUBE 1 25 Apr 12:13:00 12:16:53 28° 98° (E) 12:20:44 437.505/2401.250
LO-87 25 Apr 12:17:42 12:21:14 69° 101° (E) 12:24:45 145.935 - 145.965
VELOX 1 25 Apr 12:35:39 12:36:44 11° 94° (E) 12:37:49 145.980
NANOSAT C BR1 25 Apr 12:36:11 12:40:23 77° 76° (ENE) 12:44:35 145.865
PCSat 25 Apr 12:38:54 12:43:52 35° 62° (ENE) 12:48:47 145.827
BUGSAT 1 25 Apr 12:40:57 12:44:01 20° 72° (ENE) 12:47:03 437.445
Oscar 19 25 Apr 12:58:07 12:59:31 11° 66° (ENE) 13:00:56 437.125/150
AO-85 25 Apr 13:00:20 13:04:44 56° 114° (ESE) 13:08:51 145.980
EO-79 25 Apr 13:03:13 13:07:11 40° 260° (W) 13:11:11 145.935-145.965
50 SAT 25 Apr 13:04:33 13:05:23 11° 95° (E) 13:06:13 437.505
DUCHIFAT 1 25 Apr 13:07:03 13:11:05 45° 260° (W) 13:15:06 145.980
AIST 2D 25 Apr 13:14:00 13:14:46 11° 265° (W) 13:15:33 435.315
DX 1 25 Apr 13:30:49 13:33:50 18° 96° (E) 13:36:50 434.975-435.025
POLYITAN 1 25 Apr 13:44:13 13:46:10 13° 265° (W) 13:48:07 437.675
SPROUT 25 Apr 13:47:05 13:51:20 88° 276° (W) 13:55:33 437.525
ESTCUBE 1 25 Apr 13:50:12 13:53:25 19° 289° (WNW) 13:56:38 437.505/2401.250
VELOX 1 25 Apr 14:09:06 14:13:18 44° 286° (WNW) 14:17:28 145.980
BUGSAT 1 25 Apr 14:15:55 14:19:10 22° 263° (W) 14:22:25 437.445
Gurwin Techsat 1B 25 Apr 14:22:42 14:27:51 53° 74° (ENE) 14:33:00 435.225
PCSat 25 Apr 14:22:54 14:26:57 22° 254° (WSW) 14:30:58 145.827
BEESAT 2 25 Apr 14:23:58 14:27:06 23° 110° (ESE) 14:30:17 435.950
BEESAT 3 25 Apr 14:27:38 14:31:31 89° 284° (WNW) 14:35:29 437.485
Oscar 19 25 Apr 14:33:08 14:38:13 63° 259° (WSW) 14:43:20 437.125/150
50 SAT 25 Apr 14:35:23 14:38:18 25° 286° (WNW) 14:41:11 437.505
UKube-1 25 Apr 14:35:48 14:40:07 85° 100° (E) 14:44:25 .
DX 1 25 Apr 15:06:18 15:09:55 26° 288° (WNW) 15:13:31 434.975-435.025
AO-7 25 Apr 15:06:20 15:13:02 28° 63° (ENE) 15:19:44 .
ITUPSAT 1 25 Apr 15:34:23 15:38:09 23° 97° (E) 15:41:55 437.325
ITAMSAT 1 25 Apr 15:55:42 16:00:50 63° 75° (ENE) 16:05:58 435.822/435.867
Tancredo 1 25 Apr 15:58:49 15:59:52 11° 37° (NE) 16:00:56 437.200
SO-50 25 Apr 15:59:25 16:02:03 15° 54° (NE) 16:04:41 436.795
BEESAT 2 25 Apr 16:01:54 16:04:44 19° 303° (WNW) 16:07:38 435.950
YUBILEINY 25 Apr 16:02:32 16:10:39 41° 79° (E) 16:18:45 435.215
Gurwin Techsat 1B 25 Apr 16:05:35 16:07:59 13° 266° (W) 16:10:22 435.225
ISS 25 Apr 16:09:15 16:10:34 12° 37° (NE) 16:11:52 437.550
BEESAT 25 Apr 16:31:33 16:36:18 72° 285° (WNW) 16:41:02 436.000
MOZHAYETS 4 25 Apr 16:37:26 16:41:59 59° 101° (E) 16:46:32
JUGNU 25 Apr 16:44:44 16:48:33 18° 162° (SSE) 16:52:23 437.505
AO-7 25 Apr 16:57:21 17:05:19 51° 257° (WSW) 17:13:19 .
RS-15 25 Apr 16:58:06 17:09:19 41° 54° (NE) 17:19:57 29.354- 29.394
KKS-1 25 Apr 17:01:34 17:03:59 14° 95° (E) 17:06:23 437.445
ITUPSAT 1 25 Apr 17:11:55 17:15:50 26° 289° (WNW) 17:19:45 437.325
CUBESAT XI-V 25 Apr 17:25:07 17:29:12 29° 98° (E) 17:33:16 437.345
Tancredo 1 25 Apr 17:32:59 17:35:56 43° 230° (SW) 17:38:53 437.200
STARS 25 Apr 17:37:03 17:39:33 15° 96° (E) 17:42:02 437.465
SO-50 25 Apr 17:38:24 17:42:37 40° 247° (WSW) 17:46:51 436.795
ITAMSAT 1 25 Apr 17:39:54 17:40:32 10° 266° (W) 17:41:11 435.822/435.867
ISS 25 Apr 17:44:05 17:47:11 46° 231° (SW) 17:50:19 437.550
DOVE 4 25 Apr 17:51:38 17:55:49 24° 71° (ENE) 18:00:00 437.250
LilacSat-2 25 Apr 17:58:50 18:00:06 11° 71° (ENE) 18:01:23 437.200
YUBILEINY 25 Apr 17:59:35 18:07:06 33° 273° (W) 18:14:40 435.215
XW-2C 25 Apr 18:01:11 18:02:32 12° 71° (ENE) 18:03:53 145.795 - 145.815
